When you browse on this site, cookies collect data to enhance your experience and personalize the content and advertising you see.
Visit our Privacy Policy to learn more. By continuing to use the site, you agree to this use of cookies and data.
EN

Hourly Weather Stavyshche

Today, 8 August, Saturday

Time Temperature Precipitation Wind Pressure Humidity
00:00 +21°C° 0 mm 4 mps 749 mmHg 81%
01:00 +20°C° 0 mm 4 mps 749 mmHg 81%
02:00 +20°C° 0 mm 4 mps 749 mmHg 82%
03:00 +19°C° 0 mm 4 mps 749 mmHg 82%
04:00 +19°C° 0 mm 4 mps 749 mmHg 81%
05:00 +18°C° 0 mm 4 mps 749 mmHg 81%
06:00 +20°C° 0 mm 4 mps 749 mmHg 76%
07:00 +22°C° 0 mm 5 mps 749 mmHg 70%
08:00 +23°C° 0 mm 5 mps 749 mmHg 64%
09:00 +25°C° 0 mm 5 mps 749 mmHg 59%
10:00 +26°C° 0 mm 5 mps 749 mmHg 54%
11:00 +28°C° 0 mm 6 mps 749 mmHg 49%
12:00 +28°C° 0 mm 6 mps 749 mmHg 47%
13:00 +28°C° 0 mm 6 mps 749 mmHg 45%
14:00 +28°C° 0 mm 6 mps 748 mmHg 43%
15:00 +28°C° 0 mm 6 mps 748 mmHg 45%
16:00 +27°C° 0 mm 5 mps 748 mmHg 46%
17:00 +27°C° 0 mm 5 mps 747 mmHg 48%
18:00 +25°C° 0 mm 5 mps 747 mmHg 54%
19:00 +22°C° 0 mm 4 mps 748 mmHg 60%
20:00 +21°C° 0 mm 4 mps 748 mmHg 66%
21:00 +20°C° 0 mm 4 mps 748 mmHg 67%
22:00 +19°C° 0 mm 3 mps 748 mmHg 68%
23:00 +18°C° 0 mm 3 mps 748 mmHg 69%

Tomorrow, 9 August, Sunday

Time Temperature Precipitation Wind Pressure Humidity
00:00 +18°C° 0 mm 3 mps 747 mmHg 71%
01:00 +17°C° 0 mm 3 mps 747 mmHg 72%
02:00 +17°C° 0 mm 3 mps 747 mmHg 74%
03:00 +17°C° 0 mm 3 mps 747 mmHg 76%
04:00 +16°C° 0 mm 3 mps 747 mmHg 77%
05:00 +16°C° 0 mm 3 mps 747 mmHg 78%
06:00 +19°C° 0 mm 3 mps 747 mmHg 71%
07:00 +21°C° 0 mm 3 mps 747 mmHg 64%
08:00 +23°C° 0 mm 4 mps 747 mmHg 57%
09:00 +25°C° 0 mm 4 mps 747 mmHg 52%
10:00 +26°C° 0 mm 4 mps 747 mmHg 47%
11:00 +28°C° 0 mm 4 mps 747 mmHg 42%
12:00 +28°C° 0 mm 4 mps 747 mmHg 42%
13:00 +28°C° 0 mm 4 mps 746 mmHg 41%
14:00 +28°C° 0 mm 4 mps 746 mmHg 41%
15:00 +28°C° 0 mm 4 mps 746 mmHg 45%
16:00 +27°C° 0 mm 4 mps 746 mmHg 49%
17:00 +27°C° 0 mm 4 mps 745 mmHg 52%
18:00 +25°C° 0 mm 4 mps 746 mmHg 58%
19:00 +22°C° 0 mm 3 mps 746 mmHg 63%
20:00 +21°C° 0 mm 3 mps 746 mmHg 68%
21:00 +20°C° 0 mm 3 mps 746 mmHg 70%
22:00 +19°C° 0 mm 3 mps 746 mmHg 71%
23:00 +19°C° 0 mm 3 mps 746 mmHg 73%

Day after tomorrow, 10 August, Monday

Time Temperature Precipitation Wind Pressure Humidity
00:00 +18°C° 0 mm 2 mps 746 mmHg 74%
01:00 +18°C° 0 mm 2 mps 746 mmHg 76%
02:00 +17°C° 0 mm 2 mps 746 mmHg 78%
03:00 +17°C° 0 mm 2 mps 746 mmHg 78%
04:00 +17°C° 0 mm 2 mps 746 mmHg 79%
05:00 +17°C° 0 mm 2 mps 746 mmHg 80%
06:00 +19°C° 0 mm 2 mps 746 mmHg 72%
07:00 +21°C° 0 mm 2 mps 746 mmHg 64%
08:00 +24°C° 0 mm 2 mps 746 mmHg 55%
09:00 +26°C° 0 mm 2 mps 746 mmHg 51%
10:00 +27°C° 0 mm 2 mps 746 mmHg 46%
11:00 +28°C° 0 mm 2 mps 746 mmHg 42%
12:00 +28°C° 0 mm 2 mps 746 mmHg 41%
13:00 +28°C° 0 mm 2 mps 745 mmHg 41%
14:00 +29°C° 0 mm 2 mps 745 mmHg 40%
15:00 +28°C° 0 mm 2 mps 745 mmHg 43%
16:00 +28°C° 0 mm 2 mps 745 mmHg 45%
17:00 +28°C° 0 mm 2 mps 745 mmHg 47%
18:00 +26°C° 0 mm 1 mps 745 mmHg 51%
19:00 +25°C° 0 mm 1 mps 745 mmHg 56%
20:00 +23°C° 0 mm 1 mps 745 mmHg 60%
21:00 +23°C° 0 mm 1 mps 745 mmHg 65%
22:00 +22°C° 0 mm 1 mps 745 mmHg 69%
23:00 +21°C° 0 mm 1 mps 745 mmHg 73%

11 August, Tuesday

Time Temperature Precipitation Wind Pressure Humidity
00:00 +20°C° 0 mm 1 mps 745 mmHg 76%
01:00 +20°C° 0 mm 1 mps 745 mmHg 78%
02:00 +19°C° 0 mm 1 mps 745 mmHg 81%
03:00 +19°C° 0 mm 1 mps 745 mmHg 82%
04:00 +19°C° 0 mm 1 mps 745 mmHg 83%
05:00 +19°C° 0 mm 1 mps 745 mmHg 84%
06:00 +21°C° 0 mm 1 mps 745 mmHg 77%
07:00 +23°C° 0 mm 1 mps 745 mmHg 71%
08:00 +24°C° 0 mm 1 mps 745 mmHg 64%
09:00 +25°C° 0.1 mm 2 mps 745 mmHg 59%
10:00 +27°C° 0.1 mm 2 mps 745 mmHg 55%
11:00 +28°C° 0.1 mm 2 mps 745 mmHg 50%
12:00 +28°C° 0 mm 2 mps 745 mmHg 48%
13:00 +28°C° 0 mm 2 mps 745 mmHg 47%
14:00 +29°C° 0 mm 1 mps 745 mmHg 45%
15:00 +28°C° 0 mm 1 mps 745 mmHg 47%
16:00 +28°C° 0 mm 1 mps 745 mmHg 49%
17:00 +28°C° 0 mm 1 mps 745 mmHg 51%
18:00 +26°C° 0.6 mm 2 mps 744 mmHg 59%
19:00 +24°C° 0.6 mm 2 mps 744 mmHg 66%
20:00 +21°C° 0.6 mm 2 mps 744 mmHg 74%
21:00 +20°C° 0.7 mm 2 mps 744 mmHg 76%
22:00 +20°C° 0.7 mm 1 mps 744 mmHg 79%
23:00 +20°C° 0.7 mm 1 mps 744 mmHg 82%

12 August, Wednesday

Time Temperature Precipitation Wind Pressure Humidity
00:00 +19°C° 0.1 mm 1 mps 744 mmHg 82%
01:00 +17°C° 0.1 mm 0 mps 744 mmHg 83%
02:00 +17°C° 0.1 mm 0 mps 743 mmHg 83%
03:00 +17°C° 0 mm 0 mps 743 mmHg 83%
04:00 +17°C° 0 mm 0 mps 743 mmHg 82%
05:00 +17°C° 0 mm 0 mps 743 mmHg 82%
06:00 +19°C° 0 mm 0 mps 743 mmHg 76%
07:00 +20°C° 0 mm 0 mps 743 mmHg 70%
08:00 +24°C° 0 mm 1 mps 743 mmHg 63%
09:00 +25°C° 0.5 mm 1 mps 743 mmHg 60%
10:00 +26°C° 0.5 mm 1 mps 743 mmHg 57%
11:00 +27°C° 0.5 mm 1 mps 743 mmHg 54%
12:00 +27°C° 0.1 mm 1 mps 743 mmHg 54%
13:00 +27°C° 0.1 mm 2 mps 742 mmHg 54%
14:00 +26°C° 0.1 mm 2 mps 742 mmHg 53%
15:00 +26°C° 0.3 mm 3 mps 742 mmHg 57%
16:00 +25°C° 0.3 mm 3 mps 742 mmHg 60%
17:00 +25°C° 0.3 mm 4 mps 742 mmHg 63%
18:00 +22°C° 0.6 mm 4 mps 742 mmHg 71%
19:00 +20°C° 0.6 mm 4 mps 743 mmHg 79%
20:00 +18°C° 0.6 mm 4 mps 743 mmHg 87%
21:00 +17°C° 0.1 mm 4 mps 743 mmHg 89%
22:00 +17°C° 0.1 mm 4 mps 743 mmHg 91%
23:00 +15°C° 0.1 mm 4 mps 743 mmHg 92%

13 August, Thursday

Time Temperature Precipitation Wind Pressure Humidity
00:00 +15°C° 0 mm 4 mps 743 mmHg 92%
01:00 +14°C° 0 mm 5 mps 743 mmHg 92%
02:00 +14°C° 0 mm 5 mps 743 mmHg 92%
03:00 +13°C° 0 mm 5 mps 743 mmHg 91%
04:00 +13°C° 0 mm 5 mps 743 mmHg 91%
05:00 +13°C° 0 mm 5 mps 743 mmHg 91%
06:00 +14°C° 0 mm 5 mps 743 mmHg 86%
07:00 +15°C° 0 mm 5 mps 744 mmHg 82%
08:00 +16°C° 0 mm 5 mps 744 mmHg 77%
09:00 +16°C° 0 mm 5 mps 744 mmHg 73%
10:00 +17°C° 0 mm 5 mps 744 mmHg 69%
11:00 +17°C° 0 mm 5 mps 744 mmHg 65%
12:00 +19°C° 0.1 mm 5 mps 744 mmHg 61%
13:00 +20°C° 0.1 mm 5 mps 744 mmHg 58%
14:00 +21°C° 0.1 mm 5 mps 744 mmHg 54%
15:00 +21°C° 0.1 mm 5 mps 744 mmHg 55%
16:00 +20°C° 0.1 mm 5 mps 745 mmHg 57%
17:00 +20°C° 0.1 mm 6 mps 745 mmHg 58%
18:00 +19°C° 0 mm 5 mps 745 mmHg 64%
19:00 +16°C° 0 mm 5 mps 745 mmHg 70%
20:00 +15°C° 0 mm 4 mps 746 mmHg 76%
21:00 +14°C° 0 mm 4 mps 746 mmHg 79%
22:00 +14°C° 0 mm 4 mps 746 mmHg 81%
23:00 +13°C° 0 mm 4 mps 746 mmHg 84%
Show more